sat.trackr.live / text

‹ back to catalog

STARLINK-34276

NORAD 64263 · 2025-120H

PAYLOAD ACTIVE UNKNOWN

§ Identity

Operator
Country
US
Launch date
2025-06-04
Launch site
AFWTR
Launch vehicle
Mass (kg)
RCS (m²)

Purposes: comms

External: N2YO · Heavens-Above · Gunter

§ Orbital elements

Epoch: 2026-05-25T05:02:48.648192Z

Period
94.10 min
Inclination
53.1574°
Eccentricity
0.0001168
Mean motion
15.30207292 rev/d
Perigee alt
474.4 km
Apogee alt
476.0 km
Semi-major
6,853.3 km
B*
5.5524e-4
RAAN
121.1307°
Arg perigee
80.3483°
Mean anomaly
279.7650°
Rev number
5,563

§ Raw data

STARLINK-342761 64263U 25120H   26145.21028528  .00016125  00000+0  55524-3 0  99952 64263  53.1574 121.1307 0001168  80.3483 279.7650 15.30207292 55631

JSON: /api/v1/satellites/64263 · /tle

For live sub-satellite position, see the globe view (requires WebGL).

§ Visibility from observer

Set your observer location to see the next 7 days of passes ≥ 10°. The values pass through the URL so the page stays shareable.

No JS? Fill the form by hand. The geolocation button needs JavaScript.